Year,Month,Day,Hour,Minute,Value (Times are PST for temperature in C)
2023,04,22,13,32,11.40
2023,04,22,13,33,11.40
2023,04,22,13,34,11.40
2023,04,22,13,35,11.30
2023,04,22,13,36,11.30
2023,04,22,13,37,11.30
2023,04,22,13,38,11.30
2023,04,22,13,39,11.30
2023,04,22,13,40,11.30
2023,04,22,13,41,11.20
2023,04,22,13,42,11.20
2023,04,22,13,43,11.20
2023,04,22,13,44,11.30
2023,04,22,13,45,11.30
2023,04,22,13,46,11.30
2023,04,22,13,47,11.30
2023,04,22,13,48,11.30
2023,04,22,13,49,11.30
2023,04,22,13,50,11.30
2023,04,22,13,51,11.30
2023,04,22,13,52,11.40
2023,04,22,13,53,11.40
2023,04,22,13,54,11.50
2023,04,22,13,55,11.60
2023,04,22,13,56,11.60
2023,04,22,13,57,11.60
2023,04,22,13,58,11.60
2023,04,22,13,59,11.60
2023,04,22,14,00,11.60
2023,04,22,14,01,11.60
2023,04,22,14,02,11.60
2023,04,22,14,03,11.60
2023,04,22,14,04,11.60
2023,04,22,14,05,11.60
2023,04,22,14,06,11.60
2023,04,22,14,07,11.60
2023,04,22,14,08,11.60
2023,04,22,14,09,11.60
2023,04,22,14,10,11.60
2023,04,22,14,11,11.60
2023,04,22,14,12,11.60
2023,04,22,14,13,11.60
2023,04,22,14,14,11.60
2023,04,22,14,15,11.60
2023,04,22,14,16,11.60
2023,04,22,14,17,11.60
2023,04,22,14,18,11.70
2023,04,22,14,19,11.70
2023,04,22,14,20,11.70
2023,04,22,14,21,11.70
2023,04,22,14,22,11.70
2023,04,22,14,23,11.80
2023,04,22,14,24,11.80
2023,04,22,14,25,11.80
2023,04,22,14,26,11.80
2023,04,22,14,27,11.90
2023,04,22,14,28,11.90
2023,04,22,14,29,11.90
2023,04,22,14,30,11.90
2023,04,22,14,31,11.90
2023,04,22,14,32,11.90
2023,04,22,14,33,11.90
2023,04,22,14,34,11.90
2023,04,22,14,35,11.90
2023,04,22,14,36,11.90
2023,04,22,14,37,11.90
2023,04,22,14,38,11.90
2023,04,22,14,39,11.90
2023,04,22,14,40,11.90
2023,04,22,14,41,11.90
2023,04,22,14,42,11.90
2023,04,22,14,43,11.80
2023,04,22,14,44,11.80
2023,04,22,14,45,11.80
2023,04,22,14,46,11.80
2023,04,22,14,47,11.80
2023,04,22,14,48,11.80
2023,04,22,14,49,11.80
2023,04,22,14,50,11.80
2023,04,22,14,51,11.80
2023,04,22,14,52,11.80
2023,04,22,14,53,11.80
2023,04,22,14,54,11.80
2023,04,22,14,55,11.80
2023,04,22,14,56,11.70
2023,04,22,14,57,11.80
2023,04,22,14,58,11.80
2023,04,22,14,59,11.80
2023,04,22,15,00,11.80
2023,04,22,15,01,11.80
2023,04,22,15,02,11.90
2023,04,22,15,03,11.90
2023,04,22,15,04,11.90
2023,04,22,15,05,12.00
2023,04,22,15,06,12.10
2023,04,22,15,07,12.10
2023,04,22,15,08,12.20
2023,04,22,15,09,12.30
2023,04,22,15,10,12.30
2023,04,22,15,11,12.30
2023,04,22,15,12,12.30
2023,04,22,15,13,12.30
2023,04,22,15,14,12.30
2023,04,22,15,15,12.40
2023,04,22,15,16,12.40
2023,04,22,15,17,12.40
2023,04,22,15,18,12.50
2023,04,22,15,19,12.50
2023,04,22,15,20,12.60
2023,04,22,15,21,12.60
2023,04,22,15,22,12.60
2023,04,22,15,23,12.60
2023,04,22,15,24,12.60
2023,04,22,15,25,12.60
2023,04,22,15,26,12.60
2023,04,22,15,27,12.60
2023,04,22,15,28,12.60
2023,04,22,15,29,12.60
2023,04,22,15,30,12.60
2023,04,22,15,31,12.60
2023,04,22,15,32,12.60
2023,04,22,15,33,12.60
2023,04,22,15,34,12.60
2023,04,22,15,35,12.60
2023,04,22,15,36,12.60
2023,04,22,15,37,12.60
2023,04,22,15,38,12.60
2023,04,22,15,39,12.60
2023,04,22,15,40,12.60
2023,04,22,15,41,12.60
2023,04,22,15,42,12.60
2023,04,22,15,43,12.60
2023,04,22,15,44,12.60
2023,04,22,15,45,12.60
2023,04,22,15,46,12.60
2023,04,22,15,47,12.60
2023,04,22,15,48,12.70
2023,04,22,15,49,12.70
2023,04,22,15,50,12.70
2023,04,22,15,51,12.70
2023,04,22,15,52,12.80
2023,04,22,15,53,12.80
2023,04,22,15,54,12.80
2023,04,22,15,55,12.80
2023,04,22,15,56,12.80
2023,04,22,15,57,12.80
2023,04,22,15,58,12.80
2023,04,22,15,59,12.80
2023,04,22,16,00,12.80
2023,04,22,16,01,12.70
2023,04,22,16,02,12.80
2023,04,22,16,03,12.80
2023,04,22,16,04,12.80
2023,04,22,16,05,12.80
2023,04,22,16,06,12.90
2023,04,22,16,07,12.80
2023,04,22,16,08,12.80
2023,04,22,16,09,12.80
2023,04,22,16,10,12.80
2023,04,22,16,11,12.90
2023,04,22,16,12,12.90
2023,04,22,16,13,12.90
2023,04,22,16,14,12.90
2023,04,22,16,15,12.90
2023,04,22,16,16,13.00
2023,04,22,16,17,13.00
2023,04,22,16,18,13.00
2023,04,22,16,19,13.00
2023,04,22,16,20,13.00
2023,04,22,16,21,13.00
2023,04,22,16,22,12.90
2023,04,22,16,23,12.90
2023,04,22,16,24,12.90
2023,04,22,16,25,12.90
2023,04,22,16,26,12.90
2023,04,22,16,27,12.90
2023,04,22,16,28,12.90
2023,04,22,16,29,12.90
2023,04,22,16,30,12.90
2023,04,22,16,31,12.90
2023,04,22,16,32,12.90
2023,04,22,16,33,12.90
2023,04,22,16,34,12.90
2023,04,22,16,35,12.90
2023,04,22,16,36,12.90
2023,04,22,16,37,12.90
2023,04,22,16,38,12.90
